GW4438 Weather Reports


time (UTC)temp
C
wind
direction
speed
KPH
gust
KPH
rain 1hr
cm
rain 24hr
cm
rain mn
cm
humidity
%
barometer
mb
20260504081520 16 284 4.8 17.7 0.00 0.00 0.00 45 1019.0
20260504070106 15 94 1.6 8.0 0.00 0.00 0.00 50 1019.1
20260504060110 13 96 0.0 6.4 0.00 0.03 0.00 55 1018.7
20260504050119 12 304 0.0 1.6 0.00 0.10 0.00 63 1018.3
20260504044512 10 304 0.0 4.8 0.00 0.10 0.00 67 1018.2
20260504043043 10 306 0.0 3.2 0.00 0.10 0.00 68 1018.1
20260504041539 8 342 0.0 1.6 0.00 0.10 0.00 72 1018.2
20260504040106 7 342 0.0 0.0 0.00 0.10 0.00 74 1018.1
20260504034633 7 342 0.0 0.0 0.00 0.10 0.00 74 1017.9
20260504033002 7 342 0.0 0.0 0.00 0.10 0.00 74 1018.0
20260504031516 7 342 0.0 1.6 0.00 0.10 0.00 73 1017.9
20260504030053 7 343 0.0 3.2 0.00 0.10 0.00 72 1017.8
20260504024554 8 348 0.0 1.6 0.00 0.10 0.00 70 1017.9
20260504023105 8 348 0.0 3.2 0.00 0.10 0.00 68 1017.8
20260504021614 8 300 0.0 4.8 0.00 0.10 0.00 67 1017.7
20260504020134 8 299 0.0 3.2 0.00 0.10 0.00 67 1017.9
20260504014516 9 291 1.6 4.8 0.00 0.10 0.00 65 1017.9
20260504013108 9 270 0.0 3.2 0.00 0.10 0.00 65 1017.8
20260504011601 9 271 0.0 1.6 0.00 0.10 0.00 64 1017.8
20260504010110 9 271 0.0 3.2 0.00 0.10 0.00 65 1017.8
20260504004623 8 271 0.0 3.2 0.00 0.10 0.00 64 1017.9
20260504003005 8 271 0.0 1.6 0.00 0.10 0.00 65 1017.9
20260504001524 8 271 0.0 3.2 0.00 0.10 0.00 65 1017.8
20260504000055 8 269 1.6 4.8 0.00 0.10 0.00 66 1017.8
20260503234607 8 254 0.0 3.2 0.00 0.10 0.00 66 1017.9
20260503233118 8 254 0.0 3.2 0.00 0.10 0.00 66 1017.8
20260503231630 8 255 0.0 3.2 0.00 0.10 0.00 66 1018.0
20260503230117 9 255 0.0 1.6 0.00 0.15 0.00 65 1018.0
20260503224503 10 255 0.0 4.8 0.00 0.15 0.00 63 1017.9
20260503223041 9 255 1.6 3.2 0.00 0.15 0.00 65 1017.8
20260503221531 9 57 0.0 1.6 0.00 0.15 0.00 65 1018.0
20260503220106 10 123 0.0 1.6 0.00 0.15 0.00 64 1018.1
20260503214619 10 124 1.6 9.7 0.00 0.15 0.00 61 1018.1
20260503213004 10 113 1.6 6.4 0.00 0.15 0.00 60 1018.1
20260503211516 10 79 0.0 8.0 0.00 0.15 0.00 61 1018.1
20260503210053 10 98 1.6 8.0 0.00 0.15 0.15 60 1018.3
20260503204621 10 86 0.0 3.2 0.00 0.15 0.15 61 1018.2
20260503203110 11 92 3.2 17.7 0.00 0.15 0.15 60 1018.3
20260503201617 11 117 9.7 16.1 0.00 0.15 0.15 59 1018.3
20260503200127 11 109 4.8 11.3 0.00 0.15 0.15 59 1018.2
20260503194509 11 134 6.4 19.3 0.00 0.15 0.15 57 1018.2
20260503193033 11 122 8.0 25.7 0.00 0.15 0.15 57 1018.2
20260503191608 11 110 3.2 20.9 0.00 0.15 0.15 56 1018.2
20260503184618 11 125 1.6 16.1 0.00 0.15 0.15 57 1017.8
20260503183116 11 107 4.8 12.9 0.00 0.15 0.15 57 1017.8
20260503181627 11 103 4.8 12.9 0.00 0.15 0.15 58 1017.5
20260503180008 11 98 3.2 12.9 0.00 0.15 0.15 57 1017.2
20260503174516 11 96 3.2 16.1 0.00 0.15 0.15 56 1017.1
20260503173053 12 127 4.8 9.7 0.00 0.15 0.15 55 1017.0
20260503171602 12 168 4.8 11.3 0.00 0.15 0.15 54 1016.9
20260503170119 12 95 4.8 19.3 0.00 0.15 0.15 52 1016.8
20260503150125 13 193 14.5 27.4 0.00 0.15 0.15 46 1016.1
20260503120119 13 102 9.7 22.5 0.00 0.15 0.15 52 1016.3
20260503110104 11 107 9.7 22.5 0.00 0.15 0.15 62 1016.5
20260503090123 11 255 8.0 24.1 0.00 0.15 0.15 58 1016.6